DW9768 Stavanger NO current weather conditions

sailwx.info

Wind from 314

Air temperature 14.4° C
Dewpoint 12.7° C

Last reported at 2019-Sep-21 16:47 UTC.
Time now 2019-Sep-21 18:07 UTC

Location: N 59°02' E 005°39'.
View on Google Maps.

See reports from other nearby stations

  
Tides and Currents Weather Stations Pressure Air Temp Water Temp Dewpoint Dewpoint Depression Visibility Wind Speed Wind Dir Waves Ship Positions
date/time (UTC)wind fromknots sea level pressurealtimeterstation pressurevisibilityair tempwater tempwave heightnotes
2019-Sep-21 16:47 314 14.4
2019-Sep-21 16:31 314 0 gusting 2 14.4
2019-Sep-21 16:16 311 2 gusting 5 14.4
2019-Sep-21 16:02 286 3 gusting 6 14.4
2019-Sep-21 15:47 289 3 gusting 6 14.4
2019-Sep-21 15:31 304 4 gusting 6 14.4
2019-Sep-21 15:19 298 3 gusting 6 14.4
2019-Sep-21 15:01 305 3 gusting 5 14.4
2019-Sep-21 14:46 298 4 gusting 6 14.4
2019-Sep-21 14:31 309 3 gusting 5 14.4
2019-Sep-21 14:16 312 1 gusting 5 15.0
2019-Sep-21 14:01 307 3 gusting 5 15.0
2019-Sep-21 13:47 315 1 gusting 5 15.0
2019-Sep-21 13:31 350 1 gusting 4 15.0
2019-Sep-21 13:16 350 1 gusting 4 14.4
2019-Sep-21 13:02 347 3 gusting 6 14.4
2019-Sep-21 12:45 250 0 gusting 2 13.9
2019-Sep-21 12:30 241 1 gusting 2 12.8
2019-Sep-21 12:15 241 1 gusting 3 12.8
2019-Sep-21 12:00 241 2 gusting 3 12.8
2019-Sep-21 11:45 237 0 gusting 4 12.2
2019-Sep-21 11:30 273 0 gusting 3 11.7
2019-Sep-21 11:15 271 1 gusting 4 11.1
2019-Sep-21 11:00 297 3 gusting 5 10.6
2019-Sep-21 10:45 300 3 gusting 6 10.6
2019-Sep-21 10:30 281 3 gusting 6 10.0
2019-Sep-21 10:15 313 4 gusting 6 10.0
2019-Sep-21 10:00 303 3 gusting 5 10.0
2019-Sep-21 09:45 300 1 gusting 5 10.0
2019-Sep-21 09:30 304 2 gusting 5 10.0
2019-Sep-21 09:15 360 10.6
2019-Sep-21 09:00 360 0 gusting 3 10.0
2019-Sep-21 08:45 127 10.0
2019-Sep-21 08:31 124 10.0
2019-Sep-21 08:16 128 1 gusting 5 10.0
2019-Sep-21 08:02 110 10.0
2019-Sep-21 07:46 115 9.4
2019-Sep-21 07:32 120 9.4
2019-Sep-21 07:17 120 0 gusting 4 9.4
2019-Sep-21 07:02 128 0 gusting 3 9.4
2019-Sep-21 06:47 060 10.0
2019-Sep-21 06:31 071 10.0
2019-Sep-21 06:17 123 1 gusting 6 10.0
2019-Sep-21 06:01 039 9.4
2019-Sep-21 05:47 039 8.9
2019-Sep-21 05:31 039 8.9
2019-Sep-21 05:17 038 9.4
2019-Sep-21 05:01 038 9.4
2019-Sep-21 04:46 017 8.9
2019-Sep-21 04:31 017 8.9
2019-Sep-21 04:15 017 9.4
2019-Sep-21 04:00 017 9.4
2019-Sep-21 03:46 017 9.4
2019-Sep-21 03:31 017 9.4
2019-Sep-21 03:15 017 9.4
2019-Sep-21 03:02 017 9.4
2019-Sep-21 02:46 017 9.4
2019-Sep-21 02:31 017 0 gusting 3 9.4
2019-Sep-21 02:16 017 9.4
2019-Sep-21 02:01 017 9.4
2019-Sep-21 01:45 017 9.4
2019-Sep-21 01:30 017 9.4
2019-Sep-21 01:15 017 9.4
2019-Sep-21 01:00 017 9.4
2019-Sep-21 00:45 017 9.4
2019-Sep-21 00:30 017 9.4
2019-Sep-21 00:15 017 9.4
2019-Sep-21 00:00 017 9.4
2019-Sep-20 23:45 017 9.4
2019-Sep-20 23:31 017 10.0
2019-Sep-20 23:15 017 10.0
2019-Sep-20 23:00 017 10.0
2019-Sep-20 22:45 017 10.0
2019-Sep-20 22:30 017 10.0
2019-Sep-20 22:15 017 10.6
2019-Sep-20 22:00 017 0 gusting 4 10.6
2019-Sep-20 21:45 055 0 gusting 3 10.6
2019-Sep-20 21:30 023 10.0
2019-Sep-20 21:15 023 10.0
2019-Sep-20 21:00 023 10.0
2019-Sep-20 20:45 023 10.0
2019-Sep-20 20:30 021 10.0
2019-Sep-20 20:15 021 10.0
2019-Sep-20 20:00 020 10.0
2019-Sep-20 19:45 021 10.0
2019-Sep-20 19:31 021 10.0
2019-Sep-20 19:18 023 10.0
2019-Sep-20 19:02 023 10.6
2019-Sep-20 18:46 023 10.6
2019-Sep-20 18:32 023 11.1
2019-Sep-20 18:16 023 11.7
2019-Sep-20 18:02 360 12.2
2019-Sep-20 17:46 015 12.2
2019-Sep-20 17:31 027 12.2
2019-Sep-20 17:17 010 12.2
2019-Sep-20 17:02 018 12.2
2019-Sep-20 16:48 009 0 gusting 4 12.2
2019-Sep-20 16:31 028 0 gusting 5 12.2
2019-Sep-20 16:16 360 1 gusting 6 12.2
2019-Sep-20 16:02 346 2 gusting 6 12.8
2019-Sep-20 15:46 338 3 gusting 6 12.8
2019-Sep-20 15:31 355 0 gusting 5 12.8
2019-Sep-20 15:17 311 1 gusting 7 12.8
2019-Sep-20 15:01 321 3 gusting 6 12.8
2019-Sep-20 14:46 336 3 gusting 7 12.8
2019-Sep-20 14:31 355 2 gusting 7 12.8
2019-Sep-20 14:16 016 2 gusting 6 12.8
2019-Sep-20 14:01 316 1 gusting 5 12.8
2019-Sep-20 13:45 005 2 gusting 6 12.8
2019-Sep-20 13:31 342 3 gusting 6 12.8
2019-Sep-20 13:16 344 2 gusting 6 12.2
2019-Sep-20 13:00 005 1 gusting 5 12.2
2019-Sep-20 12:46 026 3 gusting 6 12.2
2019-Sep-20 12:31 360 1 gusting 7 12.8
2019-Sep-20 12:17 313 6 gusting 10 12.2
2019-Sep-20 12:01 337 3 gusting 7 12.8
2019-Sep-20 11:46 324 4 gusting 7 12.8
2019-Sep-20 11:32 336 5 gusting 9 12.8
2019-Sep-20 11:16 349 2 gusting 6 12.8
2019-Sep-20 11:00 346 2 gusting 6 12.8
2019-Sep-20 10:46 033 2 gusting 6 12.2
2019-Sep-20 10:31 360 0 gusting 6 12.2
2019-Sep-20 10:16 360 2 gusting 7 12.2
2019-Sep-20 10:00 360 6 gusting 12 12.2
2019-Sep-20 09:45 013 3 gusting 8 11.7
2019-Sep-20 09:31 014 1 gusting 6 11.7
2019-Sep-20 09:15 325 1 gusting 4 11.7
2019-Sep-20 09:00 015 0 gusting 5 11.7
2019-Sep-20 08:46 005 1 gusting 4 11.7
2019-Sep-20 08:30 360 2 gusting 4 11.7
2019-Sep-20 08:16 005 1 gusting 3 11.7
2019-Sep-20 08:00 360 2 gusting 4 11.7
2019-Sep-20 07:45 009 11.7
2019-Sep-20 07:30 360 0 gusting 3 11.1
2019-Sep-20 07:15 005 11.7
2019-Sep-20 07:00 355 11.1
2019-Sep-20 06:45 360 0 gusting 5 11.1
2019-Sep-20 06:30 340 1 gusting 4 11.1
2019-Sep-20 06:15 348 11.1
2019-Sep-20 06:00 350 11.1
2019-Sep-20 05:45 350 11.1
2019-Sep-20 05:30 350 11.1
2019-Sep-20 05:15 350 11.1
2019-Sep-20 05:00 348 11.1
2019-Sep-20 04:45 355 11.1
2019-Sep-20 04:30 355 11.1
2019-Sep-20 04:15 355 11.1
2019-Sep-20 04:00 355 11.1
2019-Sep-20 03:45 355 11.1
2019-Sep-20 03:30 336 11.7
2019-Sep-20 03:15 333 11.7
2019-Sep-20 03:00 336 2 gusting 5 11.7
2019-Sep-20 02:45 220 11.7
2019-Sep-20 02:30 161 11.7
2019-Sep-20 02:15 161 11.7
2019-Sep-20 02:00 160 0 gusting 1 11.1
2019-Sep-20 01:45 158 11.1
2019-Sep-20 01:33 158 11.1
2019-Sep-20 01:17 158 11.1
2019-Sep-20 01:02 158 10.6
2019-Sep-20 00:47 158 10.6
2019-Sep-20 00:31 158 10.6
2019-Sep-20 00:16 158 10.6
2019-Sep-20 00:01 159 10.0
2019-Sep-19 23:46 169 10.0
2019-Sep-19 23:31 169 10.0
2019-Sep-19 23:16 169 10.0
2019-Sep-19 23:00 170 10.0
2019-Sep-19 22:46 169 10.0
2019-Sep-19 22:31 169 10.0
2019-Sep-19 22:17 164 0 gusting 5 9.4
2019-Sep-19 22:01 181 0 gusting 3 9.4
2019-Sep-19 21:46 161 1 gusting 4 9.4
2019-Sep-19 21:30 166 1 gusting 3 9.4
2019-Sep-19 21:16 178 2 gusting 5 8.9
2019-Sep-19 21:00 160 1 gusting 5 8.9
2019-Sep-19 20:46 176 2 gusting 6 8.9
2019-Sep-19 20:31 171 3 gusting 6 8.9
2019-Sep-19 20:16 173 3 gusting 6 8.9
2019-Sep-19 20:01 164 4 gusting 7 8.9
2019-Sep-19 19:45 196 6 gusting 7 8.9
2019-Sep-19 19:30 190 6 gusting 9 8.9
2019-Sep-19 19:16 200 6 gusting 7 8.9
2019-Sep-19 19:00 202 6 gusting 8 9.4
2019-Sep-19 18:45 215 5 gusting 6 9.4
2019-Sep-19 18:31 217 3 gusting 6 9.4
2019-Sep-19 18:15 228 3 gusting 6 9.4
2019-Sep-19 18:00 253 3 gusting 6 9.4